Regional Weather Roundup
Issued by NWS Jackson, KY

Home | Current Version | Previous Version | Graphics & Text | Print | Product List | Glossary On
Versions: 1 2 3 4 5 6 7 8 9 10 11 12 13 14 15 16 17 18 19 20 21 22 23 24 25 26 27 28
000
ASUS43 KJKL 190310
RWRJKL

EAST KENTUCKY HOURLY WEATHER ROUNDUP
NATIONAL WEATHER SERVICE JACKSON KY
1000 PM EST SAT FEB 18 2017

NOTE: "FAIR" INDICATES FEW OR NO CLOUDS BELOW 12,000 FEET WITH
NO SIGNIFICANT WEATHER AND/OR OBSTRUCTIONS TO VISIBILITY.

* THESE REPORTS ARE NOT UNDER NWS QUALITY CONTROL AND MAY NOT
  REPORT WEATHER SUCH AS PRECIPITATION AND FOG.

KYZ079-080-083-085-087-088-110-112-115-119-120-190400
...EASTERN KENTUCKY...

CITY           SKY/WX    TMP DP  RH WIND       PRES   REMARKS
JACKSON        CLOUDY    47  45  93 CALM      29.94R FOG
LONDON         CLOUDY    48  46  93 CALM      29.95S FOG
SOMERSET*      CLOUDY    46  45  93 CALM      29.97S
MONTICELLO*    CLOUDY    45  44  97 VRB7      29.98R
WILLIAMSBURG*  CLOUDY    48  48 100 CALM      29.96R
MIDDLESBORO*   CLOUDY    47  47 100 CALM      29.97R FOG
HARLAN APT*    CLOUDY    46  45  93 CALM      29.96R
PIKE CO APT*   LGT RAIN  48  44  84 SW3       29.94S
BIG SANDY APT* RAIN      48  46  90 SW5       29.94R
MOREHEAD APT*  CLOUDY    46  41  81 S5        29.94R
ASHLAND*       CLOUDY    46  45  93 CALM      29.90S
$$

KYZ035-036-041-042-044-050-067-078-099-190400
...CENTRAL KENTUCKY...

CITY           SKY/WX    TMP DP  RH WIND       PRES   REMARKS
MT STERLING*   CLOUDY    46  43  87 SW6       29.95R
FLEMING/MASON* DRIZZLE   45  44  97 SW6       29.93R
DANVILLE*      CLOUDY    46  43  87 S5        29.94S
LEXINGTON      LGT RAIN  48  43  82 W6        29.93R
FRANKFORT      CLOUDY    49  46  90 SW6       29.92R FOG
LOUISVILLE     LGT RAIN  51  47  86 S6        29.92S
LEBANON*         N/A     48  45  87 S7        29.93S
GLASGOW*       CLOUDY    49  45  85 S3        29.94S
BOWLING GREEN  CLOUDY    52  47  83 S3        29.95S
$$

KYZ091>093-OHZ055-061-077-WVZ005-015-034-035-042-190400
...SOUTHERN OHIO/WEST VIRGINIA...

CITY           SKY/WX    TMP DP  RH WIND       PRES   REMARKS
COVINGTON      CLOUDY    51  47  86 W9        29.90R
COLUMBUS       MOCLDY    52  43  71 SW10      29.87R
DAYTON         PTCLDY    49  43  80 SW12      29.87R
WILMINGTON     CLOUDY    48  44  86 SW14      29.88R
HUNTINGTON     LGT RAIN  48  44  86 S5        29.92R
CHARLESTON     LGT RAIN  52  38  58 VRB5      29.91R
PINEVILLE*     CLOUDY    47  38  72 MISG      29.96R
BECKLEY        CLOUDY    46  32  58 SW3       29.90R
BLUEFIELD      CLOUDY    48  31  51 W5        29.91R
LOGAN CO APT*  CLOUDY    50  37  62 CALM      29.92R
$$

VAZ002-007-008-TNZ017-027-036-066-071-190400
...SOUTHWEST VIRGINIA/EAST TENNESSEE...

CITY           SKY/WX    TMP DP  RH WIND       PRES   REMARKS
WISE*          CLOUDY    45  37  76 SW6       29.95S
JONESVILLE*    CLOUDY    46  46 100 CALM      29.98S FOG
ABINGDON*      CLOUDY    51  37  59 W5        29.95R
BRISTOL        CLOUDY    50  41  71 W6        29.96R
MORRISTOWN*    CLOUDY    50  46  87 SW7       29.96R
SEVIERVILLE*   CLOUDY    48  45  87 SW5       29.97S
KNOXVILLE      CLOUDY    49  47  93 SW7       29.97S
LAFOLLETTE*    CLOUDY    48  48 100 CALM      29.99R
OAK RIDGE      CLOUDY    49  48  97 SW3       29.99R FOG
CROSSVILLE     CLOUDY    48  46  93 CALM      29.97R
NASHVILLE      CLOUDY    53  47  79 S3        29.96R
$$

...KEY TO REMARKS...
VSB - VISIBILITY IN MILES
WCI - WIND CHILL INDEX
HX  - HEAT INDEX

$$




USA.gov is the U.S. government's official web portal to all federal, state and local government web resources and services.